Preview of NWS' New Version of Forecast
This preview is not operational and should not be used for support decisions.

Regional Weather Roundup (RWR)

Issued by Gray - Portland, ME (GYX)

                            
000
ASUS41 KGYX 210305
RWRGYX
WEATHER ROUNDUP FOR MAINE AND NEW HAMPSHIRE
NATIONAL WEATHER SERVICE GRAY ME
1100 PM EDT FRI SEP 20 2019

MEZ002-005-006-010-012-015-018-020-021-024-026-027-029-210400-
MAINE
  
CITY           SKY/WX    TMP DP  RH WIND       PRES   REMARKS
PORTLAND       FAIR      65  54  67 W3        30.09R                  
SANFORD        FAIR      57  54  89 CALM      30.10S                  
BAR HARBOR     FAIR      67  56  67 NW5       30.04R                  
WISCASSET      FAIR      64  52  64 VRB5      30.08R                  
ROCKLAND       FAIR      62  56  80 W8        30.05S                  
FRYEBURG       FAIR      56  52  86 CALM      30.11S                  
LEWISTONAUBURN FAIR      64  54  69 W3        30.10R                  
AUGUSTA        FAIR      66  48  52 NW7       30.09R                  
WATERVILLE     FAIR      65  51  60 NW7       30.06R                  
BANGOR         FAIR      62  55  77 W3        30.05R                  
GREENVILLE       N/A     62  53  72 NW12      30.08R                  
MILLINOCKET    MOCLDY    68  56  65 NW8       30.06R                  
HOULTON        FAIR      64  57  78 NW3       30.00S                  
PRESQUE ISLE   FAIR      64  57  78 NW5       30.02S                  
FRENCHVILLE    FAIR      59  55  87 NW10      30.02S                  
CARIBOU        FAIR      63  56  78 NW6       30.01S                  
$$

NHZ002-005-008-009-011-012-014-210400-
NEW HAMPSHIRE
  
CITY           SKY/WX    TMP DP  RH WIND       PRES   REMARKS
PORTSMOUTH     MOCLDY    65  51  60 W8        30.07F                  
ROCHESTER      FAIR      64  51  62 VRB3      30.08F                  
NASHUA         FAIR      57  55  93 CALM      30.12F                  
MANCHESTER     FAIR      65  52  62 CALM      30.10F                  
CONCORD        FAIR      54  51  90 CALM      30.12F                  
LACONIA        FAIR      58  54  86 CALM      30.14R                  
PLYMOUTH       FAIR      55  50  84 CALM      30.14S                  
BERLIN         FAIR      52  49  89 CALM      30.16R                  
WHITEFIELD     CLOUDY    52  49  89 CALM      30.18R                  
JAFFREY        FAIR      54  50  86 CALM      30.17F                  
KEENE          FOG       52  52 100 CALM      30.17S VSB 3/4          
LEBANON        FAIR      52  47  83 CALM      30.16S                  
MT WASHINGTON  FOG       46  46 100 NW38G53     N/A  VSB 1/8          
$$

VTZ005-007-008-210400-
VERMONT
  
CITY           SKY/WX    TMP DP  RH WIND       PRES   REMARKS
ST JOHNSBURY     N/A     53  51  93 MISG      30.16R                  
MONTPELIER     FAIR      50  48  93 CALM      30.22R                  
BURLINGTON     FAIR      59  54  83 CALM      30.17R                  
$$

MAZ007-012-024-CTZ003-RIZ002-NYZ038-NYZ072-210400-
SOUTHERN NEW ENGLAND AND NY
  
CITY           SKY/WX    TMP DP  RH WIND       PRES   REMARKS
BOSTON         FAIR      72  51  47 W7        30.11F                  
WORCESTER      FAIR      63  50  62 W10       30.16S                  
NANTUCKET      FAIR      64  60  87 W9        30.14S                  
PROVIDENCE     FAIR      63  55  75 W8        30.14F                  
HARTFORD       FAIR      58  51  78 CALM      30.16S                  
ALBANY         FAIR      56  51  84 CALM      30.18S                  
NEW YORK CITY  PTCLDY    79  43  27 W9        30.17F                  
$$

ANZ081-ANZ082-ANZ150-NHZ014-MEZ023>029-210400-
COASTAL MARINE OBSERVATIONS
  
STATION/POSITION TIME  TEMP    WIND        PRES    WAVE
                       AIR SEA DIR/SP/G            HT/PER
                 (UTC) (F)     (DEG/KT/KT) (MB)    (FT/S)
MOUNT DESERT ROC 0200          240/ 17/ 17 1016.5R
MATINICUS ROCK   0250   60                 1016.9R
ISLE OF SHOALS   0200   69     250/ 11/ 12 1018.5R
JEFFREYS LEDGE   0238      62                N/A     7/12
CASHES LEDGE BUO 0150   63 60  240/ 12/ 14 1018.3    9/15
GEORGES BANK BUO 0240   60 59              1019.8F
$$

.............KEY..............
   WCI - WIND CHILL
   TC  - TEMPERATURE IN CELSIUS
   VSB - VISIBILITY IN MILES
   HX  - HEAT INDEX
   FAIR- INDICATES FEW OR NO CLOUDS BELOW 12,000 FT, WITH NO 
         SIGNIFICANT WEATHER AND/OR OBSTRUCTIONS TO VISIBILITY.